Cloud_Cover
5 1 0 5 0 1 29 1 5 0 0 0 100 100 57 5 81 70 83 63 100 100 100 100 100 100 100 34 100 100 100 100 44 5 4 6 48 60 45 21 5 0 3 0 0 0 0 0 0
0 0 3 7 0 6 76 4 0 1 1 0 30 100 100 70 86 100 100 99 100 100 100 100 100 100 100 96 13 100 100 100 97 5 3 5 20 6 5 8 5 5 5 3 0 0 0 1 5
0 0 0 5 5 3 16 3 4 0 4 1 0 99 100 100 100 100 100 100 100 100 100 100 100 100 100 100 67 73 100 100 100 100 29 6 12 5 86 98 44 5 5 5 1 2 5 4 5
0 0 0 5 21 5 2 1 5 5 0 1 2 1 100 100 100 77 100 94 83 100 100 100 100 100 100 100 100 82 32 100 100 100 100 100 100 22 100 76 74 13 17 5 5 15 61 5 5
0 0 0 2 100 5 5 18 5 1 4 5 2 0 6 100 100 100 78 100 100 100 100 52 99 100 100 100 100 86 5 62 100 83 100 100 100 98 100 99 6 5 10 5 6 5 5 5 5
0 0 0 5 5 5 1 1 5 8 5 5 12 4 10 31 100 100 84 74 100 100 100 99 100 100 70 100 89 100 3 3 0 3 67 100 100 56 23 79 16 15 12 22 5 5 5 19 5
0 0 1 5 3 0 3 0 0 87 40 20 44 99 99 85 51 100 100 81 72 97 100 89 78 100 43 18 84 82 58 0 4 4 5 26 5 12 16 26 5 5 5 3 3 5 5 6 5
0 0 0 0 5 46 0 0 0 0 82 9 56 20 95 99 99 53 100 100 100 60 76 100 100 98 100 87 100 100 100 100 21 12 56 100 86 100 34 29 26 5 5 5 5 5 5 0 4
0 0 0 5 4 35 0 4 5 0 0 62 51 99 99 45 97 62 83 98 92 100 98 90 100 94 100 100 100 100 100 100 83 100 97 100 100 85 100 97 84 100 84 7 7 5 5 10 61
0 0 0 2 1 4 4 4 0 1 0 0 6 98 95 100 80 95 19 63 100 100 100 100 100 100 100 100 100 100 100 100 100 100 100 100 99 100 100 100 100 100 99 76 28 30 14 11 77
0 0 0 0 0 0 2 2 0 2 1 0 4 3 5 88 98 65 12 83 69 94 100 100 100 100 100 100 100 100 99 38 57 100 100 100 100 100 100 100 91 78 77 72 39 14 8 80 24
0 0 0 0 0 0 4 4 1 64 6 0 0 0 4 89 30 100 100 100 100 95 100 100 100 100 100 100 99 98 98 36 20 49 100 69 40 80 99 79 12 30 11 14 13 62 100 89 100
0 0 0 0 0 0 0 1 5 5 34 100 76 18 3 14 48 100 59 100 100 100 100 100 100 100 100 100 100 100 100 65 94 85 99 96 100 100 100 99 89 98 87 64 49 93 100 100 100
0 0 0 0 0 0 0 0 91 2 0 4 36 100 100 71 93 66 99 100 100 100 100 100 100 100 100 100 100 100 96 99 72 71 56 100 98 100 100 100 64 70 80 100 100 97 100 100 100
0 0 0 0 0 0 0 2 0 2 86 0 0 2 96 98 77 99 91 99 100 100 79 74 100 100 100 100 100 100 100 100 100 89 79 68 78 100 100 100 100 100 100 62 92 98 100 100 100
0 0 0 0 0 0 0 1 5 0 0 0 0 71 0 100 100 98 63 80 100 100 100 100 100 100 91 100 100 100 100 100 100 100 100 100 100 100 100 100 100 100 100 100 100 100 100 100 100
0 1 0 0 0 0 0 41 7 0 0 3 89 1 1 98 100 100 100 100 100 100 100 99 100 98 100 100 100 100 100 100 100 100 100 100 100 100 100 100 100 100 99 100 100 100 100 100 100
0 0 0 2 0 0 0 0 0 4 76 4 0 1 7 89 100 100 89 100 100 100 100 100 100 100 100 94 100 100 100 100 100 100 100 99 64 100 100 100 63 86 100 100 100 100 100 100 100
0 0 0 0 0 0 0 0 0 0 42 3 13 31 6 0 100 100 100 100 93 100 100 100 100 100 100 100 100 100 100 100 100 100 97 94 90 100 100 100 100 100 100 100 100 100 100 100 100
0 0 0 0 0 0 0 0 98 99 100 98 100 100 3 26 100 100 100 100 100 100 100 100 100 100 100 100 100 100 100 100 100 100 100 100 100 100 100 100 100 100 95 100 100 100 100 100 100
0 0 0 0 0 0 0 0 0 78 98 94 65 99 44 2 5 90 100 100 100 100 100 100 100 100 100 100 85 48 100 100 100 100 100 100 100 74 100 100 100 100 100 100 100 100 100 100 100
0 0 0 0 0 13 1 66 3 80 47 15 35 11 7 38 5 80 100 100 100 100 100 100 100 100 100 97 94 38 57 100 100 83 75 66 100 100 100 99 95 99 100 85 27 22 10 6 5
0 0 0 0 0 4 7 1 10 0 70 99 34 5 0 3 100 100 100 100 100 100 100 100 100 87 100 100 46 12 69 22 99 60 52 65 96 51 94 83 100 94 90 62 43 6 6 5 33
0 0 0 0 2 53 98 44 100 4 15 39 71 19 5 26 67 100 79 28 19 100 100 100 100 100 100 94 95 100 100 78 66 100 92 100 96 45 92 99 99 88 100 100 95 95 69 39 5
0 0 2 44 94 88 11 4 42 2 23 22 76 66 4 8 2 25 69 73 64 14 31 76 98 96 99 100 100 100 100 100 100 100 100 99 73 26 5 56 89 89 98 100 100 100 100 96 90
0 0 1 5 5 82 0 2 0 0 0 1 95 97 92 80 98 97 77 54 76 86 98 98 99 39 79 100 100 100 95 91 56 6 3 0 0 0 0 0 34 93 100 98 93 100 100 97 99
2 0 1 0 0 0 0 0 0 0 0 40 100 100 100 86 94 86 86 83 78 100 96 94 76 100 100 96 1 0 16 37 34 58 77 46 82 41 38 34 19 3 32 24 84 100 100 97 58
0 0 0 2 1 3 23 2 27 0 0 0 90 97 42 62 91 94 73 76 42 19 0 1 0 0 2 3 13 17 40 61 88 100 100 100 97 100 100 96 93 52 26 30 63 32 100 100 100
0 0 0 0 0 0 2 54 0 0 0 2 12 1 1 5 2 2 0 0 0 0 0 4 29 40 54 66 89 100 100 100 100 100 100 100 100 100 100 100 99 94 61 36 27 91 64 100 100
0 0 0 0 1 30 0 0 0 0 0 0 0 0 0 0 0 0 0 0 0 0 14 34 74 69 96 88 44 70 92 100 100 100 100 100 100 95 98 98 74 95 100 92 89 37 100 100 100